Location: Unspecified
(0.0000°N, 0.0000°E)
Time: 14:43:39
(UTC+00:00)

COSMOS 1275 DEB - Pass Details

Date: 18 February 2026
Orbit: 902 x 1038 km, 83.0° (Epoch: 19 November)

Event Time Altitude Azimuth Distance (km) Brightness Sun altitude
Rises 05:33:33 0° 200° (SSW) 3,733 ? -9.9°
Reaches altitude 10° 05:36:19 10° 208° (SSW) 2,768 ? -9.2°
Maximum altitude 05:42:01 35° 272° (W) 1,519 ? -7.8°
Drops below altitude 10° 05:47:35 10° 337° (NNW) 2,690 ? -6.5°
Sets 05:50:15 0° 346° (NNW) 3,614 ? -5.8°
